SP3GTP-15 Weather Reports


time (UTC)temp
F
wind
direction
speed
knots
gust
knots
rain 1hr
in
rain 24hr
in
rain mn
in
humidity
%
barometer
mb
20260905235325 56 260 4.3 4.3 0.00 0.00 0.00 81 1015.2
20260905234322 56 198 0.9 0.9 0.00 0.00 0.00 81 1014.8
20260905233313 57 257 0.0 0.0 0.00 0.00 0.00 81 1014.7
20260905231247 57 234 1.7 1.7 0.00 0.00 0.00 80 1014.8
20260905230240 57 274 5.2 5.2 0.00 0.00 0.00 80 1014.8
20260905225232 57 245 4.3 4.3 0.00 0.00 0.00 81 1014.8
20260905223210 56 89 1.7 1.7 0.00 0.00 0.00 83 1014.5
20260905222206 57 261 0.0 0.0 0.00 0.00 0.00 82 1014.6
20260905221201 57 250 2.6 2.6 0.00 0.00 0.00 82 1014.5
20260905215129 57 246 0.9 0.9 0.00 0.24 0.24 83 1014.1
20260905214124 56 210 2.6 2.6 0.00 0.24 0.24 84 1014.4
20260905213118 56 253 1.7 1.7 0.00 0.24 0.24 86 1014.3
20260905211057 56 144 0.9 0.9 0.00 0.24 0.24 88 1014.1
20260905210052 56 78 1.7 1.7 0.00 0.24 0.24 88 1013.7
20260905205052 56 99 0.9 0.9 0.00 0.24 0.24 88 1013.6
20260905203027 56 147 2.6 2.6 0.00 0.24 0.24 89 1013.8
20260905202022 56 239 1.7 1.7 0.00 0.24 0.24 89 1013.6
20260905201017 56 260 4.3 4.3 0.00 0.24 0.24 88 1013.6
20260905200007 56 99 1.7 1.7 0.00 0.24 0.24 88 1013.5
20260905193939 56 227 0.9 0.9 0.00 0.24 0.24 90 1013.4
20260905192929 56 271 2.6 2.6 0.00 0.24 0.24 90 1013.2
20260905191922 56 150 1.7 1.7 0.00 0.24 0.24 90 1013.1
20260905185836 56 256 3.5 3.5 0.00 0.24 0.24 90 1013.0
20260905184822 56 210 0.9 0.9 0.00 0.24 0.24 89 1012.6
20260905183812 56 228 3.5 3.5 0.00 0.24 0.24 88 1012.9
20260905181753 56 102 2.6 2.6 0.03 0.24 0.24 87 1012.6
20260905180747 56 256 2.6 2.6 0.04 0.24 0.24 88 1012.6
20260905175734 56 258 2.6 3.5 0.05 0.24 0.24 87 1012.4
20260905173557 57 228 1.7 1.7 0.11 0.24 0.24 88 1012.3
20260905172549 57 263 1.7 1.7 0.16 0.24 0.24 88 1012.2
20260905171545 57 275 1.7 1.7 0.18 0.24 0.24 88 1012.2
20260905165520 57 288 2.6 2.6 0.17 0.20 0.20 88 1012.3
20260905164510 56 244 3.5 3.5 0.17 0.20 0.20 88 1011.9
20260905163502 56 23 1.7 1.7 0.15 0.18 0.18 88 1012.2
20260905162453 57 323 1.7 1.7 0.12 0.15 0.15 88 1012.2
20260905160425 59 43 7.8 8.7 0.04 0.07 0.07 78 1011.7
20260905155417 63 252 5.2 7.0 0.02 0.05 0.05 68 1011.3
20260905154411 65 259 9.6 13.0 0.00 0.03 0.03 58 1010.4
20260905152330 68 276 3.5 3.5 0.00 0.03 0.03 54 1009.6
20260905151322 67 258 0.0 0.0 0.00 0.03 0.03 59 1009.7
20260905150314 68 251 0.0 0.0 0.01 0.03 0.03 57 1009.8
20260905144254 68 265 0.0 0.0 0.03 0.03 0.03 56 1009.5
20260905143248 69 138 7.0 7.8 0.03 0.03 0.03 55 1009.6
20260905142227 68 252 2.6 2.6 0.03 0.03 0.03 59 1009.4
20260905140148 63 16 0.0 0.0 0.03 0.03 0.03 75 1010.2
20260905135138 61 293 1.7 1.7 0.02 0.02 0.02 79 1010.3
20260905134133 65 318 7.0 7.8 0.00 0.00 0.00 65 1010.3
20260905132108 67 263 4.3 5.2 0.00 0.00 0.00 55 1009.4
20260905131101 69 258 5.2 5.2 0.00 0.00 0.00 53 1009.7
20260905130050 69 259 1.7 1.7 0.00 0.00 0.00 51 1009.6
20260905124022 68 105 1.7 1.7 0.00 0.00 0.00 52 1009.6
20260905123018 67 276 5.2 7.0 0.00 0.00 0.00 53 1009.5
20260905122012 69 228 2.6 3.5 0.00 0.00 0.00 51 1009.7
20260905115945 70 50 4.3 4.3 0.00 0.00 0.00 47 1009.5
20260905114938 70 264 3.5 4.3 0.00 0.00 0.00 47 1009.5
20260905113929 68 236 4.3 4.3 0.00 0.00 0.00 50 1009.7
20260905111903 68 106 2.6 3.5 0.00 0.00 0.00 50 1009.9
20260905110900 69 204 7.8 8.7 0.00 0.00 0.00 51 1009.9
20260905105854 69 234 1.7 1.7 0.00 0.00 0.00 51 1010.0
20260905103820 68 124 2.6 3.5 0.00 0.00 0.00 56 1009.9
20260905102801 65 261 4.3 4.3 0.00 0.00 0.00 59 1010.2
20260905101738 65 256 1.7 1.7 0.00 0.00 0.00 61 1010.0
20260905095627 67 108 0.9 0.9 0.00 0.00 0.00 59 1010.1
20260905094546 66 224 4.3 5.2 0.00 0.00 0.00 58 1010.1
20260905093535 66 120 1.7 1.7 0.00 0.00 0.00 60 1010.2
20260905091312 65 246 3.5 3.5 0.00 0.00 0.00 64 1010.1
20260905090157 65 143 5.2 5.2 0.00 0.00 0.00 64 1009.8
20260905085153 65 298 3.5 4.3 0.00 0.00 0.00 65 1010.0
20260905083129 65 281 3.5 3.5 0.00 0.00 0.00 65 1009.9
20260905082122 64 42 1.7 1.7 0.00 0.00 0.00 68 1009.6
20260905081120 63 6 0.9 0.9 0.00 0.00 0.00 70 1010.0
20260905075054 63 252 2.6 3.5 0.00 0.00 0.00 72 1009.7
20260905074048 63 252 4.3 4.3 0.00 0.00 0.00 71 1009.4
20260905073042 62 251 5.2 6.1 0.00 0.00 0.00 73 1009.5
20260905071011 62 251 5.2 7.0 0.00 0.00 0.00 74 1008.9
20260905070003 62 277 1.7 1.7 0.00 0.00 0.00 76 1009.3
20260905064955 61 96 5.2 5.2 0.00 0.00 0.00 77 1008.7
20260905062915 60 170 0.9 0.9 0.00 0.00 0.00 81 1009.1
20260905061906 60 244 2.6 2.6 0.00 0.00 0.00 82 1009.0
20260905060857 60 262 0.9 0.9 0.00 0.00 0.00 82 1008.9
20260905054831 59 192 0.0 0.0 0.00 0.00 0.00 84 1008.8
20260905053823 59 228 0.0 0.0 0.00 0.00 0.00 84 1008.6
20260905052814 59 132 3.5 3.5 0.00 0.00 0.00 84 1008.6
20260905050744 59 138 2.6 3.5 0.00 0.00 0.00 86 1007.9
20260905045735 59 204 1.7 1.7 0.00 0.00 0.00 86 1007.7
20260905044725 58 210 3.5 4.3 0.00 0.00 0.00 87 1008.0
20260905042656 59 265 3.5 3.5 0.00 0.00 0.00 87 1007.8
20260905041649 59 226 1.7 1.7 0.00 0.00 0.00 87 1007.7
20260905040643 59 318 1.7 1.7 0.00 0.00 0.00 87 1007.2
20260905034612 59 302 0.9 0.9 0.00 0.00 0.00 86 1007.0
20260905033559 59 272 0.0 0.0 0.00 0.00 0.00 85 1007.2
20260905032555 60 280 1.7 1.7 0.00 0.00 0.00 85 1007.1
20260905030523 60 310 2.6 2.6 0.00 0.00 0.00 84 1006.6
20260905025513 60 307 0.0 0.0 0.00 0.00 0.00 84 1006.4
20260905024503 60 120 1.7 1.7 0.00 0.00 0.00 84 1006.6
20260905022436 60 224 1.7 1.7 0.00 0.00 0.00 84 1006.5
20260905021430 61 275 1.7 1.7 0.00 0.00 0.00 83 1006.4
20260905020419 61 288 1.7 1.7 0.00 0.00 0.00 83 1006.4
20260905014350 61 270 2.6 3.5 0.00 0.00 0.00 82 1005.7
20260905013344 61 274 2.6 2.6 0.00 0.00 0.00 83 1006.1
20260905012331 61 280 3.5 3.5 0.00 0.00 0.00 83 1005.8
20260905010256 61 246 3.5 3.5 0.00 0.00 0.00 84 1005.9
20260905005254 62 269 4.3 4.3 0.00 0.00 0.00 84 1005.6
20260905004243 62 282 2.6 2.6 0.00 0.00 0.00 84 1005.7
20260905002159 62 67 1.7 1.7 0.00 0.00 0.00 86 1005.4
20260905001153 62 105 2.6 2.6 0.00 0.00 0.00 86 1005.9
20260905000147 62 223 3.5 3.5 0.00 0.00 0.00 88 1005.5